Weather History for 12843 - April, 2014

Change the Weather History Date:

Thursday, April 24, 2014

  Actual Average Record
Temperature  
Mean Temperature 64 °F -  
Max Temperature 72 °F 69 °F - ()
Min Temperature 55 °F 49 °F - ()
Degree Days  
Heating Degree Days 2    
Growing Degree Days 14 (Base 50)    
Moisture  
Dew Point 52 °F    
Average Humidity 59    
Maximum Humidity 83    
Minimum Humidity 33    
Precipitation  
Precipitation 0.00 in 0.07 in - ()
Sea Level Pressure  
Sea Level Pressure 29.94 in    
Wind  
Wind Speed 5 mph ()    
Max Wind Speed 11 mph    
Max Gust Speed -    
Visibility 12.6 miles    
Events      
T = Trace of Precipitation, MM = Missing Value Source: Averaged Metar Reports

Daily Weather History Graph

Daily Weather History Graph

Search for Another Location

Airport or City:

Trip Planner

Search our weather history database for the weather conditions in past years. The results will help you decide how hot, cold, wet, or windy it might be!

Date:

Astronomy

Apr. 24, 2014 Rise Set
Actual Time 5:38 AM CEST 7:44 PM CEST
Civil Twilight 5:05 AM CEST 8:18 PM CEST
Nautical Twilight 4:24 AM CEST 8:59 PM CEST
Astronomical Twilight 3:38 AM CEST 9:45 PM CEST
Moon 3:00 AM CEST 2:19 PM CEST
Length of Visible Light 15h 12m
Length of Day
14h 05m
Waning Crescent, 27% of the Moon is Illuminated
Apr 24
Waning Crescent
Apr 29
New
May 7
First Quarter
May 14
Full
May 21
Last Quarter

Hourly Weather History & Observations

Time (CEST) Temp. Dew Point Humidity Pressure Visibility Wind Dir Wind Speed Gust Speed Precip Events Conditions
12:00 AM 59 °F 54 °F 78% 29.99 in 9 mi North 4.5 mph - -   Partly Cloudy
1:00 AM 58 °F 54 °F 82% 29.99 in 7 mi North 2.2 mph - -   Partly Cloudy
2:00 AM 58 °F 54 °F 80% 29.98 in 9 mi North 4.5 mph - -   Partly Cloudy
3:00 AM 57 °F 53 °F 83% 29.97 in 9 mi North 2.2 mph - -   Partly Cloudy
4:00 AM 56 °F 52 °F 83% 29.97 in 9 mi North 4.5 mph - -   Partly Cloudy
5:00 AM 56 °F 52 °F 83% 29.96 in 7 mi NNW 4.5 mph - -   Partly Cloudy
6:00 AM 56 °F 52 °F 81% 29.96 in 9 mi North 4.5 mph - -   Partly Cloudy
7:00 AM 57 °F 52 °F 78% 29.96 in 12 mi North 6.7 mph - -   Partly Cloudy
8:00 AM 58 °F 52 °F 73% 29.96 in 19 mi North 4.5 mph - -   Partly Cloudy
9:00 AM 61 °F 52 °F 65% 29.96 in 28 mi North 4.5 mph - -   Partly Cloudy
10:00 AM 64 °F 52 °F 57% 29.95 in 31 mi North 4.5 mph - -   Partly Cloudy
11:00 AM 68 °F 52 °F 46% 29.95 in 34 mi NE 6.7 mph - -   Partly Cloudy
12:00 PM 69 °F 50 °F 40% 29.94 in 34 mi ENE 8.9 mph - -   Partly Cloudy
1:00 PM 70 °F 51 °F 39% 29.93 in 37 mi NE 8.9 mph - -   Partly Cloudy
2:00 PM 71 °F 50 °F 37% 29.91 in 37 mi NE 8.9 mph - -   Partly Cloudy
3:00 PM 72 °F 49 °F 33% 29.91 in 37 mi ENE 11.2 mph - -   Partly Cloudy
4:00 PM 71 °F 48 °F 33% 29.90 in 19 mi East 8.9 mph - -   Partly Cloudy
5:00 PM 71 °F 49 °F 34% 29.89 in 34 mi ENE 8.9 mph - -   Partly Cloudy
6:00 PM 70 °F 50 °F 37% 29.89 in 37 mi NE 4.5 mph - -   Partly Cloudy
7:00 PM 66 °F 52 °F 51% 29.90 in 37 mi ESE 6.7 mph - -   Partly Cloudy
8:00 PM 65 °F 52 °F 53% 29.91 in 34 mi NNE 2.2 mph - -   Partly Cloudy
9:00 PM 63 °F 53 °F 60% 29.92 in 19 mi North 2.2 mph - -   Partly Cloudy
10:00 PM 63 °F 53 °F 60% 29.93 in 17 mi NE 2.2 mph - -   Partly Cloudy
11:00 PM 63 °F 52 °F 59% 29.92 in 19 mi NE 6.7 mph - -   Partly Cloudy